{"data":{"norad_id":50469,"epoch":"2026-05-25T02:44:19.840992Z","epoch_age_seconds":64895,"freshness":"FRESH","line1":"1 50469U 21132A   26145.11411853  .00000029  00000+0  41465-4 0  9999","line2":"2 50469  87.9154  10.4569 0002192  89.0951 271.0432 13.17651105215042","mean_motion":13.17651105,"eccentricity":0.0002192,"inclination_deg":87.9154,"raan_deg":10.4569,"arg_perigee_deg":89.0951,"mean_anomaly_deg":271.0432,"bstar":4.1465e-5,"rev_number":21504,"period_min":109.28537869666,"perigee_km":1192.0454478312,"apogee_km":1195.3649434497,"semimajor_km":7571.8421956404,"source":"CELESTRAK","updated_at":"2026-05-25T13:38:22.527609Z"}}